VU2IIA-13 Weather Reports


Display with metric or nautical units.
time (UTC)temp
F
wind
direction
speed
MPH
gust
MPH
rain 1hr
in
rain 24hr
in
rain mn
in
humidity
%
barometer
mb
20240221153835 85 0.0 0.0 0.00 0.00 0.00 59 1014.5
20240221152828 85 0.0 0.0 0.00 0.00 0.00 59 1014.4
20240221151821 85 0.0 0.0 0.00 0.00 0.00 58 1014.2
20240221150819 85 0.0 0.0 0.00 0.00 0.00 59 1014.1
20240221150814 85 0.0 0.0 0.00 0.00 0.00 58 1014.1
20240221145812 85 0.0 0.0 0.00 0.00 0.00 58 1014.0
20240221145806 85 0.0 0.0 0.00 0.00 0.00 58 1014.1
20240221144759 85 0.0 0.0 0.00 0.00 0.00 57 1014.0
20240221143752 85 0.0 0.0 0.00 0.00 0.00 58 1014.0
20240221142744 85 0.0 0.0 0.00 0.00 0.00 57 1013.8
20240221141737 85 0.0 0.0 0.00 0.00 0.00 57 1013.7
20240221140730 85 0.0 0.0 0.00 0.00 0.00 58 1013.6
20240221135723 85 0.0 0.0 0.00 0.00 0.00 58 1013.4
20240221134715 85 0.0 0.0 0.00 0.00 0.00 58 1013.4
20240221133708 85 0.0 0.0 0.00 0.00 0.00 58 1013.3
20240221132706 85 0.0 0.0 0.00 0.00 0.00 58 1013.2
20240221132700 85 0.0 0.0 0.00 0.00 0.00 59 1013.2
20240221131653 85 0.0 0.0 0.00 0.00 0.00 58 1013.0
20240221130646 84 0.0 0.0 0.00 0.00 0.00 59 1013.0
20240221125638 84 0.0 0.0 0.00 0.00 0.00 59 1012.9
20240221124631 84 0.0 0.0 0.00 0.00 0.00 60 1012.8
20240221123622 83 0.0 0.0 0.00 0.00 0.00 60 1012.6
20240221122615 83 0.0 0.0 0.00 0.00 0.00 59 1012.5
20240221121608 84 0.0 0.0 0.00 0.00 0.00 58 1012.5
20240221120600 84 0.0 0.0 0.00 0.00 0.00 57 1012.4
20240221115553 84 0.0 0.0 0.00 0.00 0.00 57 1012.4
20240221114545 85 0.0 0.0 0.00 0.00 0.00 57 1012.3
20240221113538 85 0.0 0.0 0.00 0.00 0.00 55 1012.3
20240221112531 85 0.0 0.0 0.00 0.00 0.00 56 1012.3
20240221111523 85 0.0 0.0 0.00 0.00 0.00 55 1012.3
20240221110515 85 0.0 0.0 0.00 0.00 0.00 55 1012.3
20240221105508 85 0.0 0.0 0.00 0.00 0.00 55 1012.2
20240221104501 85 0.0 0.0 0.00 0.00 0.00 56 1012.2
20240221103453 85 0.0 0.0 0.00 0.00 0.00 56 1012.2
20240221102452 85 0.0 0.0 0.00 0.00 0.00 56 1012.3
20240221102446 85 0.0 0.0 0.00 0.00 0.00 56 1012.2
20240221101445 85 0.0 0.0 0.00 0.00 0.00 55 1012.3
20240221101439 85 0.0 0.0 0.00 0.00 0.00 56 1012.3
20240221100431 85 0.0 0.0 0.00 0.00 0.00 56 1012.3
20240221095424 85 0.0 0.0 0.00 0.00 0.00 56 1012.5
20240221094423 85 0.0 0.0 0.00 0.00 0.00 56 1012.6
20240221094416 85 0.0 0.0 0.00 0.00 0.00 55 1012.6
20240221093409 85 0.0 0.0 0.00 0.00 0.00 56 1012.7
20240221092401 86 0.0 0.0 0.00 0.00 0.00 55 1012.8
20240221091401 86 0.0 0.0 0.00 0.00 0.00 54 1012.9
20240221091353 86 0.0 0.0 0.00 0.00 0.00 55 1012.9
20240221090353 86 0.0 0.0 0.00 0.00 0.00 55 1013.1
20240221090346 86 0.0 0.0 0.00 0.00 0.00 54 1013.1
20240221085346 85 0.0 0.0 0.00 0.00 0.00 57 1013.3
20240221085338 85 0.0 0.0 0.00 0.00 0.00 57 1013.2
20240221084331 84 0.0 0.0 0.00 0.00 0.00 57 1013.4
20240221083323 85 0.0 0.0 0.00 0.00 0.00 56 1013.5
20240221082316 84 0.0 0.0 0.00 0.00 0.00 58 1013.6
20240221081308 84 0.0 0.0 0.00 0.00 0.00 59 1013.8
20240221080301 85 0.0 0.0 0.00 0.00 0.00 57 1013.9
20240221075254 85 0.0 0.0 0.00 0.00 0.00 56 1014.0
20240221074246 85 0.0 0.0 0.00 0.00 0.00 57 1014.2
20240221073239 85 0.0 0.0 0.00 0.00 0.00 57 1014.3
20240221072232 85 0.0 0.0 0.00 0.00 0.00 57 1014.6
20240221071224 85 0.0 0.0 0.00 0.00 0.00 57 1014.9
20240221070217 85 0.0 0.0 0.00 0.00 0.00 56 1015.1
20240221065209 84 0.0 0.0 0.00 0.00 0.00 56 1015.3
20240221064202 84 0.0 0.0 0.00 0.00 0.00 56 1015.4
20240221063154 84 0.0 0.0 0.00 0.00 0.00 56 1015.5
20240221062147 85 0.0 0.0 0.00 0.00 0.00 54 1015.6
20240221061147 84 0.0 0.0 0.00 0.00 0.00 54 1015.7
20240221061139 84 0.0 0.0 0.00 0.00 0.00 55 1015.7
20240221055110 84 0.0 0.0 0.00 0.00 0.00 56 1015.9
20240221054103 84 0.0 0.0 0.00 0.00 0.00 57 1015.9
20240221053055 85 0.0 0.0 0.00 0.00 0.00 57 1015.9
20240221052048 83 0.0 0.0 0.00 0.00 0.00 60 1016.0
20240221051040 83 0.0 0.0 0.00 0.00 0.00 61 1016.0
20240221050038 82 0.0 0.0 0.00 0.00 0.00 63 1016.1
20240221050032 82 0.0 0.0 0.00 0.00 0.00 63 1016.0
20240221024048 83 0.0 0.0 0.00 0.00 0.00 62 1015.2
20240221023040 82 0.0 0.0 0.00 0.00 0.00 62 1015.0
20240221022038 82 0.0 0.0 0.00 0.00 0.00 61 1015.0
20240221022033 82 0.0 0.0 0.00 0.00 0.00 61 1014.9
20240221021026 82 0.0 0.0 0.00 0.00 0.00 61 1014.7
20240221020019 82 0.0 0.0 0.00 0.00 0.00 61 1014.7
20240221015011 82 0.0 0.0 0.00 0.00 0.00 61 1014.6
20240221014004 82 0.0 0.0 0.00 0.00 0.00 60 1014.4
20240221012957 83 0.0 0.0 0.00 0.00 0.00 60 1014.2
20240221011949 83 0.0 0.0 0.00 0.00 0.00 60 1014.1
20240220190153 85 0.0 0.0 0.00 0.00 0.00 57 1014.6
20240220190148 85 0.0 0.0 0.00 0.00 0.00 57 1014.5
20240220185141 85 0.0 0.0 0.00 0.00 0.00 56 1014.6
20240220184133 85 0.0 0.0 0.00 0.00 0.00 56 1014.7
20240220183126 85 0.0 0.0 0.00 0.00 0.00 56 1014.7
20240220182119 85 0.0 0.0 0.00 0.00 0.00 56 1014.7
20240220181111 85 0.0 0.0 0.00 0.00 0.00 55 1014.7
20240220180104 85 0.0 0.0 0.00 0.00 0.00 55 1014.8
20240220175057 85 0.0 0.0 0.00 0.00 0.00 55 1014.8
20240220174050 85 0.0 0.0 0.00 0.00 0.00 55 1014.9
20240220173042 85 0.0 0.0 0.00 0.00 0.00 56 1014.9
20240220172035 85 0.0 0.0 0.00 0.00 0.00 56 1014.8
20240220171028 85 0.0 0.0 0.00 0.00 0.00 56 1014.8
20240220170021 85 0.0 0.0 0.00 0.00 0.00 56 1014.7
20240220165014 86 0.0 0.0 0.00 0.00 0.00 54 1014.7
20240220164006 86 0.0 0.0 0.00 0.00 0.00 53 1014.7
20240220162959 86 0.0 0.0 0.00 0.00 0.00 53 1014.7
20240220161952 86 0.0 0.0 0.00 0.00 0.00 53 1014.7
20240220160945 86 0.0 0.0 0.00 0.00 0.00 53 1014.7
20240220155937 86 0.0 0.0 0.00 0.00 0.00 53 1014.7
20240220154937 86 0.0 0.0 0.00 0.00 0.00 53 1014.7
20240220154930 86 0.0 0.0 0.00 0.00 0.00 53 1014.6